Total_Precipitation_Accumulation
0.71 0.76 0.76 0.71 0.73 0.77 0.77 0.73 0.67 0.70 0.78 0.89 0.95 1.09 1.24 1.42 1.60 1.75 1.76 1.74 1.77 1.76 1.71 1.78 1.89 1.98 2.09 2.10 2.07 1.92 1.78 1.74 1.64 1.47 1.28 1.13 1.25 1.30 1.25 1.19 1.09 0.98 0.92
0.70 0.73 0.75 0.67 0.62 0.65 0.66 0.68 0.59 0.56 0.62 0.71 0.84 1.05 1.16 1.24 1.29 1.37 1.45 1.48 1.49 1.54 1.52 1.48 1.57 1.69 1.82 1.97 2.04 1.98 1.96 1.86 1.76 1.70 1.53 1.29 1.18 1.22 1.25 1.32 1.25 1.06 0.98
0.85 0.90 0.83 0.70 0.66 0.65 0.61 0.64 0.59 0.56 0.61 0.66 0.80 0.95 1.01 1.06 1.09 1.11 1.21 1.29 1.29 1.27 1.31 1.28 1.30 1.40 1.53 1.65 1.74 1.82 1.94 1.98 1.95 1.85 1.76 1.56 1.31 1.29 1.32 1.32 1.32 1.37 1.17
1.10 1.06 0.90 0.77 0.70 0.64 0.60 0.56 0.57 0.59 0.62 0.69 0.84 0.94 0.95 0.91 1.00 1.03 1.08 1.11 1.07 1.03 1.06 1.07 1.11 1.14 1.21 1.33 1.47 1.68 1.87 1.97 2.03 2.00 1.91 1.68 1.49 1.43 1.41 1.40 1.44 1.47 1.43
1.05 0.94 0.80 0.68 0.58 0.53 0.56 0.53 0.54 0.61 0.64 0.71 0.76 0.87 0.92 0.90 0.93 0.99 0.98 0.92 0.90 0.90 0.86 0.77 0.79 0.85 0.86 0.94 0.99 1.27 1.52 1.73 1.85 1.92 1.88 1.71 1.50 1.39 1.29 1.32 1.43 1.55 1.59
0.93 0.81 0.64 0.56 0.53 0.49 0.48 0.45 0.44 0.47 0.53 0.58 0.64 0.80 0.91 0.82 0.93 0.92 0.85 0.78 0.74 0.78 0.75 0.69 0.67 0.71 0.62 0.59 0.63 0.84 1.13 1.33 1.50 1.66 1.71 1.58 1.44 1.36 1.39 1.39 1.39 1.40 1.39
0.62 0.58 0.47 0.41 0.40 0.39 0.38 0.38 0.41 0.43 0.47 0.52 0.56 0.73 0.82 0.90 0.85 0.70 0.74 0.73 0.74 0.75 0.78 0.80 0.73 0.68 0.76 0.67 0.61 0.68 0.77 0.88 1.03 1.28 1.48 1.47 1.56 1.48 1.37 1.31 1.31 1.33 1.30
0.52 0.50 0.44 0.39 0.36 0.36 0.34 0.36 0.44 0.45 0.44 0.49 0.55 0.59 0.67 0.80 0.74 0.59 0.63 0.63 0.73 0.81 0.84 0.93 0.93 0.87 0.84 0.91 0.85 0.86 0.84 0.77 0.83 0.76 0.96 1.31 1.45 1.50 1.43 1.43 1.49 1.40 1.29
0.30 0.35 0.34 0.29 0.30 0.34 0.34 0.39 0.43 0.44 0.48 0.50 0.55 0.58 0.64 0.68 0.64 0.57 0.60 0.66 0.79 0.82 0.79 0.90 0.92 0.85 0.90 0.96 1.08 1.13 1.05 0.91 1.04 1.05 0.96 1.05 1.18 1.23 1.32 1.36 1.39 1.31 1.27
0.10 0.14 0.18 0.19 0.23 0.29 0.38 0.44 0.42 0.41 0.46 0.48 0.47 0.47 0.52 0.54 0.59 0.50 0.60 0.72 0.78 0.79 0.80 0.86 0.99 0.90 0.87 0.86 0.95 1.07 1.06 0.94 0.83 0.87 0.84 0.74 0.68 0.78 0.96 1.10 1.33 1.39 1.33
0.02 0.04 0.07 0.11 0.17 0.25 0.33 0.32 0.33 0.36 0.39 0.41 0.44 0.43 0.45 0.52 0.63 0.64 0.69 0.71 0.76 0.83 0.91 0.96 0.93 0.99 0.83 0.80 0.81 0.82 0.89 0.88 0.86 0.91 0.98 0.89 0.78 0.72 0.76 0.83 1.00 1.16 1.26
0.01 0.01 0.02 0.04 0.07 0.12 0.20 0.23 0.26 0.30 0.32 0.32 0.32 0.33 0.37 0.48 0.56 0.58 0.60 0.65 0.73 0.75 0.80 0.80 0.76 0.83 0.68 0.60 0.57 0.63 0.69 0.73 0.81 0.94 0.95 0.92 0.91 0.85 0.81 0.82 0.86 0.92 0.99
0.00 0.00 0.00 0.01 0.02 0.06 0.12 0.17 0.21 0.27 0.29 0.28 0.26 0.28 0.32 0.37 0.44 0.47 0.47 0.47 0.49 0.54 0.52 0.60 0.60 0.59 0.54 0.47 0.51 0.55 0.57 0.60 0.70 0.78 0.81 0.79 0.79 0.84 0.83 0.82 0.82 0.83 0.80
0.00 0.00 0.00 0.01 0.01 0.03 0.06 0.13 0.21 0.24 0.23 0.24 0.26 0.28 0.31 0.34 0.34 0.35 0.39 0.40 0.39 0.43 0.42 0.44 0.43 0.42 0.44 0.44 0.46 0.51 0.57 0.61 0.63 0.64 0.65 0.69 0.71 0.77 0.83 0.79 0.77 0.81 0.83
0.00 0.00 0.00 0.01 0.01 0.02 0.02 0.06 0.13 0.15 0.15 0.18 0.23 0.28 0.32 0.34 0.31 0.27 0.28 0.35 0.41 0.46 0.50 0.44 0.40 0.40 0.43 0.50 0.51 0.49 0.52 0.56 0.56 0.55 0.57 0.60 0.60 0.65 0.70 0.69 0.70 0.71 0.71
0.00 0.00 0.00 0.01 0.02 0.02 0.02 0.03 0.05 0.06 0.08 0.09 0.10 0.14 0.14 0.13 0.14 0.14 0.17 0.22 0.29 0.35 0.49 0.55 0.56 0.61 0.63 0.61 0.59 0.50 0.45 0.45 0.50 0.54 0.54 0.55 0.56 0.56 0.60 0.62 0.61 0.64 0.64
0.00 0.00 0.01 0.01 0.01 0.01 0.03 0.05 0.05 0.04 0.02 0.02 0.03 0.04 0.07 0.09 0.11 0.13 0.14 0.18 0.21 0.26 0.45 0.60 0.60 0.58 0.54 0.51 0.47 0.41 0.35 0.33 0.34 0.41 0.49 0.56 0.57 0.57 0.61 0.64 0.61 0.55 0.54
0.01 0.01 0.01 0.02 0.02 0.03 0.04 0.08 0.13 0.16 0.12 0.05 0.03 0.02 0.04 0.06 0.08 0.12 0.19 0.25 0.24 0.25 0.40 0.47 0.47 0.44 0.38 0.30 0.24 0.18 0.17 0.17 0.17 0.22 0.26 0.34 0.48 0.58 0.67 0.69 0.70 0.70 0.67
0.01 0.02 0.02 0.05 0.05 0.05 0.07 0.11 0.14 0.14 0.11 0.07 0.04 0.03 0.03 0.04 0.05 0.07 0.13 0.19 0.20 0.19 0.21 0.22 0.21 0.21 0.19 0.15 0.12 0.09 0.08 0.08 0.09 0.11 0.15 0.20 0.28 0.41 0.57 0.67 0.70 0.74 0.72
0.01 0.01 0.02 0.05 0.06 0.05 0.05 0.07 0.10 0.10 0.07 0.06 0.06 0.06 0.06 0.07 0.08 0.09 0.10 0.12 0.14 0.12 0.11 0.11 0.10 0.10 0.10 0.09 0.08 0.07 0.07 0.07 0.07 0.10 0.15 0.21 0.29 0.34 0.38 0.46 0.57 0.61 0.58
0.01 0.01 0.02 0.03 0.06 0.05 0.05 0.04 0.05 0.07 0.06 0.06 0.05 0.04 0.06 0.11 0.12 0.10 0.09 0.09 0.10 0.11 0.10 0.10 0.09 0.08 0.08 0.09 0.08 0.07 0.06 0.07 0.07 0.08 0.12 0.18 0.24 0.32 0.37 0.38 0.40 0.43 0.47
0.01 0.01 0.02 0.05 0.07 0.07 0.06 0.05 0.06 0.07 0.06 0.06 0.06 0.06 0.07 0.11 0.12 0.13 0.13 0.12 0.13 0.13 0.13 0.13 0.13 0.13 0.11 0.11 0.11 0.09 0.07 0.07 0.08 0.08 0.09 0.11 0.14 0.18 0.24 0.31 0.35 0.37 0.37
0.01 0.01 0.02 0.04 0.06 0.06 0.06 0.06 0.06 0.07 0.08 0.07 0.07 0.07 0.07 0.10 0.11 0.13 0.15 0.15 0.14 0.15 0.16 0.19 0.21 0.20 0.20 0.19 0.18 0.15 0.13 0.12 0.12 0.12 0.12 0.11 0.11 0.11 0.12 0.16 0.20 0.25 0.28
0.04 0.04 0.05 0.06 0.06 0.07 0.08 0.08 0.08 0.08 0.08 0.08 0.09 0.10 0.11 0.12 0.12 0.12 0.12 0.13 0.13 0.15 0.16 0.17 0.19 0.20 0.23 0.25 0.25 0.23 0.20 0.19 0.15 0.13 0.14 0.16 0.16 0.16 0.15 0.16 0.17 0.19 0.24
0.07 0.07 0.08 0.08 0.09 0.09 0.08 0.08 0.09 0.09 0.10 0.10 0.11 0.11 0.12 0.14 0.14 0.13 0.13 0.13 0.14 0.15 0.16 0.16 0.17 0.18 0.22 0.27 0.29 0.26 0.28 0.25 0.19 0.14 0.13 0.14 0.16 0.16 0.18 0.19 0.22 0.26 0.31
0.07 0.07 0.07 0.08 0.09 0.10 0.11 0.12 0.13 0.14 0.14 0.13 0.13 0.14 0.14 0.14 0.14 0.14 0.15 0.16 0.16 0.16 0.16 0.18 0.20 0.19 0.19 0.24 0.29 0.33 0.31 0.25 0.23 0.21 0.16 0.13 0.16 0.19 0.23 0.26 0.29 0.33 0.37